[[{"header":{"parameterUnit":"m.s-1","parameterCategory":1,"la1":30.2991,"la2":30.254,"lo1":-89.0895,"lo2":-89.0444,"dy":0.0017,"dx":0.0017,"nx":28,"ny":28,"refTime":"2023-09-26T09:00:00:Z","depth":0,"parameterNumber":2,"parameterNumberName":"U-component_of_WINDS"},"data":[0,0,0,0,0,0,0,0,0,0,0,0,0,0,0,0,0,0,0,0,0,0,0,0,0,0,0,0,0,0,0,0,0,0,0,0,0,0,0,0,0,0,0,0,0,0,0,0,0,0,0,0,0,0,0,0,0,0,-5.5383,-5.5384,0,-5.5437,-5.5438,-5.5438,-5.5311,-5.5307,-5.5303,-5.53,-5.5354,-5.5359,-5.5364,0,0,0,0,0,0,0,0,0,0,0,0,0,-5.517,-5.5175,-5.5383,-5.5384,-5.5385,-5.5437,-5.5438,-5.5438,-5.5312,-5.5307,-5.5302,-5.5298,-5.5352,-5.5358,-5.5364,0,0,0,0,0,0,0,0,0,0,0,0,0,-5.5247,-5.5176,-5.5383,-5.5328,-5.5324,-5.5437,-5.5438,-5.5439,-5.5313,-5.5307,-5.5301,-5.5295,-5.535,-5.5357,-5.5365,-5.5534,0,0,-5.5389,-5.5392,0,0,0,0,0,0,0,0,-5.5243,-5.5255,-5.5335,-5.5332,-5.5327,-5.5361,-5.5382,-5.5471,-5.5315,-5.5317,-5.5299,-5.5292,-5.5361,-5.5368,-5.5391,-5.5537,-5.5539,-5.539,-5.5394,-5.5398,-5.54,0,0,0,0,0,0,0,-5.5238,-5.5252,-5.5404,-5.5337,-5.5332,-5.53,-5.5304,-5.5398,-5.5372,-5.5316,-5.5307,-5.5315,-5.5358,-5.5384,-5.5391,-5.554,-5.5389,-5.5396,-5.5401,-5.5404,-5.5826,-5.5832,0,0,0,0,0,0,-5.524,-5.5249,-5.5403,-5.5406,-5.5269,-5.5309,-5.5314,-5.5356,-5.5371,-5.5367,-5.5321,-5.5309,-5.5373,-5.5382,-5.5393,-5.559,-5.5398,-5.5405,-5.5409,-5.5819,-5.5827,-5.5834,0,0,0,0,0,0,-5.5236,-5.5255,-5.5401,-5.5325,-5.5341,-5.5319,-5.5368,-5.5361,-5.5386,-5.5374,-5.5369,-5.5352,-5.5369,-5.5382,-5.55,-5.559,-5.5408,-5.5416,-5.5811,-5.5822,-5.5831,-5.5988,0,0,0,0,0,0,-5.523,-5.5254,-5.5318,-5.5327,-5.5346,-5.5508,-5.5374,-5.5366,-5.54,-5.5386,-5.5402,-5.5399,-5.5365,-5.5489,-5.5507,-5.5598,-5.5422,-5.5803,-5.5816,-5.5827,-5.5974,-5.6002,-5.6025,0,0,0,0,0,-5.5223,-5.536,-5.5322,-5.5342,-5.5426,-5.5513,-5.5523,-5.5482,-5.5408,-5.5472,-5.5464,-5.5398,-5.5578,-5.5502,-5.5522,-5.5616,-5.5797,-5.5812,-5.5827,-5.5963,-5.5996,-5.6025,0,0,0,0,0,0,-5.5362,-5.5361,-5.5318,-5.5463,-5.5489,-5.5492,-5.5571,-5.5519,-5.5566,-5.5551,-5.5497,-5.5502,-5.563,-5.5635,-5.555,-5.578,-5.5675,-5.5694,-5.5772,-5.5803,-5.5828,-5.5824,-5.5428,0,0,0,0,0,-5.541,-5.5482,-5.5476,-5.5604,-5.562,-5.5594,-5.563,-5.5596,-5.5621,-5.5631,-5.5632,-5.5658,-5.572,-5.5762,-5.5819,-5.5975,-5.5976,-5.6049,-5.6075,-5.6096,-5.6113,-5.6195,-5.6227,-5.5882,-5.5882,-5.5882,0,0,-5.5509,-5.5517,-5.5565,-5.5633,-5.5649,-5.5724,-5.5604,-5.5688,-5.5743,-5.5644,-5.5755,-5.5757,-5.5783,-5.592,-5.5981,-5.5928,-5.6208,-5.6114,-5.6131,-5.6137,-5.6213,-5.6246,-5.6275,-5.5892,-5.589,-5.5889,0,0,-5.5727,-5.5741,-5.5849,-5.5868,-5.5894,-5.5876,-5.5902,-5.5913,-5.591,-5.6021,-5.5948,-5.6012,-5.6121,-5.6142,-5.6167,-5.6394,-5.6334,-5.6414,-5.6546,-5.6626,-5.6653,-5.6677,-5.6757,-5.6787,-5.6431,-5.6431,-5.6431,0,-5.5847,-5.5957,-5.5911,-5.6,-5.6031,-5.5946,-5.6054,-5.6075,-5.6118,-5.6142,-5.6082,-5.6216,-5.6227,-5.6368,-5.6424,-5.6447,-5.6475,-5.6411,-5.6653,-5.6677,-5.6698,-5.6774,-5.6804,-5.644,-5.6439,-5.6438,-5.6438,0,-5.6102,-5.618,-5.6264,-5.6308,-5.6349,-5.6447,-5.6415,-5.6462,-5.6425,-5.6413,-5.6527,-5.6538,-5.6594,-5.6626,-5.659,-5.6762,-5.6728,-5.6662,-5.6555,-5.6741,-5.6811,-5.684,-5.6454,-5.6451,-5.6448,-5.6445,0,0,-5.6409,-5.6427,-5.6458,-5.6477,-5.65,-5.6558,-5.6653,-5.6709,-5.675,-5.6783,-5.686,-5.6954,-5.6893,-5.6921,-5.6887,-5.6958,-5.7136,-5.6883,-5.6883,-5.6929,-5.7325,-5.7374,-5.7408,-5.7098,-5.7103,-5.7107,-5.7322,0,-5.6624,-5.6786,-5.6747,-5.6908,-5.6978,-5.6898,-5.698,-5.7003,-5.6995,-5.7053,-5.7043,-5.711,-5.7025,-5.7041,-5.7108,-5.7101,-5.7215,-5.7085,-5.7168,-5.7172,-5.7163,-5.7445,-5.7496,-5.7699,-5.735,-5.7354,-5.7358,0,-5.6896,-5.694,-5.7107,-5.7118,-5.7146,-5.7221,-5.7268,-5.7325,-5.7349,-5.7338,-5.737,-5.7322,-5.7415,-5.7309,-5.7436,-5.7348,-5.738,-5.7382,-5.7388,-5.7394,-5.7275,-5.7456,-5.7763,-5.7793,-5.7401,-5.7397,-5.7394,0,-5.7102,-5.7202,-5.7315,-5.7334,-5.735,-5.7404,-5.7413,-5.7431,-5.7467,-5.7509,-5.7531,-5.7584,-5.7612,-5.7654,-5.7621,-5.7547,-5.7753,-5.7644,-5.7745,-5.7746,-5.7791,-5.7789,-5.8106,-5.7815,-5.7814,-5.7814,-5.7813,0,-5.7345,-5.745,-5.7407,-5.7477,-5.7592,-5.7547,-5.7662,-5.7662,-5.7679,-5.7746,-5.7681,-5.7745,-5.7699,-5.776,-5.7735,-5.7843,-5.7857,-5.785,-5.7842,-5.7855,-5.7856,-5.7874,-5.7859,-5.7822,-5.782,-5.7818,-5.7817,0,-5.7593,-5.7569,-5.7687,-5.7692,-5.7696,-5.7781,-5.7785,-5.7849,-5.7836,-5.7922,-5.794,-5.7919,-5.7987,-5.7959,-5.8032,-5.8015,-5.8153,-5.8127,-5.8145,-5.8138,-5.824,-5.8231,-5.8579,-5.8622,-5.8305,-5.8308,-5.8311,0,-5.7749,-5.7828,-5.7842,-5.7883,-5.7897,-5.7963,-5.7999,-5.7958,-5.7998,-5.8031,-5.8092,-5.8154,-5.8201,-5.8314,-5.8306,-5.836,-5.8334,-5.8453,-5.8342,-5.8353,-5.8334,-5.833,-5.8337,-5.8475,-5.8478,-5.8481,-5.8484,0,-5.8029,-5.8013,-5.8067,-5.8119,-5.8164,-5.8202,-5.8234,-5.8271,-5.8231,-5.828,-5.8349,-5.8386,-5.8459,-5.8522,-5.8571,-5.8579,-5.8525,-5.8519,-5.8545,-5.8559,-5.8565,-5.8562,-5.8204,-5.8511,-5.8508,-5.8506,-5.8505,-5.8503,-5.8234,-5.8301,-5.8321,-5.8384,-5.8404,-5.8436,-5.8496,-5.8491,-5.8547,-5.8604,-5.8576,-5.8656,-5.8677,-5.8737,-5.8753,-5.8815,-5.8768,-5.8807,-5.8816,-5.8826,-5.8839,-5.8557,-5.8824,-5.8823,-5.8822,-5.8822,-5.8821,0,-5.8509,-5.8518,-5.8577,-5.8624,-5.8674,-5.8619,-5.8652,-5.8697,-5.8768,-5.8793,-5.8841,-5.892,-5.8981,-5.8977,-5.9033,-5.9083,-5.9059,-5.9099,-5.9094,-5.9097,-5.8878,-5.8849,-5.9117,-5.9117,-5.9117,-5.9117,-5.9117,-5.9117,-5.8658,-5.8766,-5.8753,-5.8871,-5.8879,-5.8956,-5.898,-5.9009,-5.9028,-5.9119,-5.9169,-5.9167,-5.918,-5.9236,-5.9289,-5.9286,-5.9309,-5.9358,-5.9346,-5.9142,-5.9112,-5.9084,-5.9057,-5.9364,-5.9364,-5.956,-5.9561,-5.9563]},{"header":{"parameterUnit":"m.s-1","parameterCategory":1,"la1":30.2991,"la2":30.254,"lo1":-89.0895,"lo2":-89.0444,"dy":0.0017,"dx":0.0017,"nx":28,"ny":28,"refTime":"2023-09-26T09:00:00:Z","depth":0,"parameterNumber":3,"parameterNumberName":"V-component_of_WINDS"},"data":[0,0,0,0,0,0,0,0,0,0,0,0,0,0,0,0,0,0,0,0,0,0,0,0,0,0,0,0,0,0,0,0,0,0,0,0,0,0,0,0,0,0,0,0,0,0,0,0,0,0,0,0,0,0,0,0,0,0,0.6889,0.6888,0,0.6793,0.6792,0.6791,0.678,0.6781,0.6782,0.6782,0.6677,0.6673,0.667,0,0,0,0,0,0,0,0,0,0,0,0,0,0.7058,0.7055,0.6889,0.6888,0.6887,0.6793,0.6792,0.6791,0.6779,0.6781,0.6782,0.6783,0.6678,0.6674,0.6669,0,0,0,0,0,0,0,0,0,0,0,0,0,0.6975,0.7054,0.689,0.687,0.6868,0.6794,0.6792,0.679,0.6779,0.6781,0.6782,0.6783,0.668,0.6674,0.6669,0.6606,0,0,0.6652,0.6649,0,0,0,0,0,0,0,0,0.698,0.6969,0.6874,0.6871,0.6868,0.68,0.6813,0.6728,0.6779,0.6812,0.6782,0.6784,0.6716,0.6708,0.6686,0.6601,0.6596,0.6651,0.6648,0.6646,0.6644,0,0,0,0,0,0,0,0.6986,0.6973,0.6851,0.6873,0.6869,0.6865,0.6855,0.6797,0.6757,0.681,0.6809,0.6798,0.6715,0.6692,0.6684,0.6595,0.6652,0.6647,0.6643,0.6641,0.6452,0.645,0,0,0,0,0,0,0.6996,0.6978,0.6854,0.6848,0.6929,0.686,0.6849,0.682,0.6758,0.675,0.6797,0.6798,0.6701,0.669,0.668,0.6602,0.6646,0.664,0.6637,0.6454,0.6452,0.645,0,0,0,0,0,0,0.7,0.6985,0.6858,0.6913,0.6896,0.6856,0.6824,0.6818,0.6795,0.6748,0.674,0.6781,0.6701,0.6688,0.6625,0.6598,0.6638,0.6633,0.6456,0.6453,0.6451,0.6444,0,0,0,0,0,0,0.7004,0.6986,0.6963,0.6913,0.6894,0.6806,0.6822,0.6815,0.6786,0.6786,0.6731,0.6723,0.6701,0.6633,0.6619,0.6591,0.6629,0.6458,0.6455,0.6452,0.6447,0.6442,0.6438,0,0,0,0,0,0.7011,0.6963,0.6962,0.6947,0.6864,0.6804,0.6793,0.6771,0.6784,0.6759,0.673,0.6725,0.6604,0.6627,0.6611,0.658,0.6459,0.6455,0.6452,0.6449,0.6443,0.6438,0,0,0,0,0,0,0.7009,0.6956,0.6954,0.689,0.6852,0.6803,0.6771,0.6766,0.6721,0.6723,0.6696,0.6683,0.6621,0.6595,0.6621,0.6516,0.6532,0.6525,0.6535,0.6529,0.6525,0.6532,0.6624,0,0,0,0,0,0.7001,0.6959,0.6915,0.6862,0.6844,0.6811,0.6784,0.6771,0.6729,0.6713,0.6678,0.6637,0.6589,0.6558,0.6512,0.6444,0.6431,0.6415,0.6411,0.6407,0.64,0.6362,0.6354,0.6437,0.6437,0.6437,0,0,0.6984,0.6951,0.6925,0.6861,0.683,0.6786,0.6797,0.6749,0.6715,0.6704,0.6643,0.6617,0.6568,0.6503,0.6472,0.6478,0.6375,0.6402,0.64,0.6395,0.6357,0.6349,0.6342,0.6435,0.6435,0.6436,0,0,0.6931,0.6902,0.6855,0.6825,0.6779,0.6758,0.6747,0.6699,0.6681,0.662,0.6611,0.657,0.6489,0.6455,0.6427,0.6363,0.6357,0.6349,0.6324,0.6287,0.6281,0.6275,0.6251,0.6243,0.6343,0.6343,0.6343,0,0.6915,0.6849,0.6831,0.6784,0.6755,0.6747,0.6698,0.6669,0.661,0.6589,0.6599,0.6498,0.6465,0.6391,0.6376,0.6354,0.6339,0.6354,0.6284,0.6277,0.6271,0.6248,0.6239,0.6342,0.6342,0.6342,0.6342,0,0.6831,0.6786,0.6753,0.6699,0.6667,0.662,0.6593,0.6562,0.6553,0.653,0.6467,0.6428,0.6374,0.6356,0.6344,0.628,0.6285,0.629,0.6305,0.6263,0.6241,0.6232,0.6341,0.6341,0.6342,0.6342,0,0,0.6771,0.671,0.6697,0.6673,0.6623,0.6587,0.6539,0.6489,0.6463,0.6423,0.638,0.6313,0.6318,0.6286,0.6271,0.6239,0.619,0.6247,0.6245,0.6236,0.6115,0.6111,0.6101,0.6187,0.6185,0.6184,0.6119,0,0.671,0.6627,0.661,0.6536,0.6494,0.6486,0.6444,0.6408,0.6386,0.6346,0.6321,0.6273,0.6283,0.6264,0.6232,0.6203,0.6165,0.6207,0.6145,0.6143,0.6155,0.609,0.6085,0.6025,0.611,0.6109,0.6107,0,0.6628,0.6589,0.6512,0.6469,0.645,0.6413,0.6366,0.6328,0.6287,0.6273,0.624,0.6229,0.6177,0.6197,0.6125,0.6154,0.6128,0.611,0.6107,0.6098,0.6121,0.6077,0.6006,0.5996,0.6094,0.6095,0.6096,0,0.659,0.6518,0.6463,0.6442,0.6391,0.6365,0.6342,0.6303,0.6274,0.6233,0.6213,0.6165,0.6138,0.6101,0.6077,0.6094,0.6006,0.6024,0.5991,0.5991,0.597,0.5971,0.5892,0.5957,0.5957,0.5957,0.5957,0,0.6523,0.6476,0.6445,0.6411,0.6358,0.6339,0.6286,0.6263,0.6229,0.6188,0.6179,0.6141,0.6113,0.6071,0.6052,0.5994,0.5982,0.5968,0.5963,0.5967,0.5969,0.5948,0.595,0.5955,0.5955,0.5956,0.5956,0,0.647,0.6448,0.6388,0.6346,0.6334,0.6296,0.6259,0.6225,0.6204,0.6154,0.6141,0.6107,0.6057,0.603,0.5967,0.5954,0.5889,0.5887,0.5903,0.5901,0.5868,0.5871,0.577,0.5756,0.5833,0.5832,0.5831,0,0.6428,0.6392,0.6347,0.6321,0.6298,0.6256,0.6227,0.6207,0.6178,0.6129,0.61,0.6051,0.601,0.593,0.5898,0.585,0.5845,0.5814,0.5838,0.5844,0.5843,0.5845,0.584,0.5809,0.5808,0.5807,0.5807,0,0.6355,0.6347,0.6307,0.6264,0.6231,0.6195,0.616,0.6138,0.6112,0.6079,0.6029,0.5998,0.5935,0.5885,0.5835,0.5809,0.5802,0.58,0.579,0.5793,0.5803,0.5795,0.5889,0.5802,0.5802,0.5803,0.5803,0.5803,0.6305,0.6273,0.6237,0.6193,0.6165,0.6133,0.6099,0.6075,0.6034,0.5983,0.5974,0.5921,0.5881,0.5813,0.5786,0.5743,0.5749,0.5734,0.573,0.5726,0.5724,0.5812,0.5734,0.5734,0.5734,0.5734,0.5734,0,0.623,0.6207,0.6168,0.612,0.6085,0.6087,0.6048,0.6018,0.5973,0.5937,0.5898,0.5841,0.5793,0.5759,0.571,0.5682,0.5678,0.5669,0.567,0.5664,0.5722,0.5735,0.5674,0.5674,0.5674,0.5674,0.5674,0.5674,0.6187,0.6133,0.612,0.6052,0.6029,0.5979,0.5957,0.5926,0.5898,0.5836,0.5797,0.5776,0.5741,0.5689,0.5645,0.5636,0.5617,0.5609,0.5599,0.5653,0.566,0.5666,0.5678,0.5606,0.5605,0.5545,0.5544,0.5544]}]]